TimeMST,TemperatureF,Dew PointF,Humidity,Sea Level PressureIn,VisibilityMPH,Wind Direction,Wind SpeedMPH,Gust SpeedMPH,PrecipitationIn,Events,Conditions,WindDirDegrees,DateUTC
12:15 AM,-0.4,-11.2,60,30.50,10.0,North,-9999.0,-,N/A,,Clear,0,2014-01-24 07:15:00
12:35 AM,-2.2,-5.8,85,30.50,10.0,Calm,Calm,-,N/A,,Clear,0,2014-01-24 07:35:00
12:55 AM,-0.4,-4.0,85,30.51,10.0,Calm,Calm,-,N/A,,Clear,0,2014-01-24 07:55:00
1:15 AM,-0.4,-7.6,72,30.51,10.0,Calm,Calm,-,N/A,,Clear,0,2014-01-24 08:15:00
1:35 AM,-4.0,-9.4,78,30.52,10.0,Calm,Calm,-,N/A,,Clear,0,2014-01-24 08:35:00
1:55 AM,-2.2,-9.4,71,30.53,10.0,Calm,Calm,-,N/A,,Clear,0,2014-01-24 08:55:00
2:15 AM,-5.8,-13.0,71,30.53,10.0,Calm,Calm,-,N/A,,Clear,0,2014-01-24 09:15:00
2:35 AM,-5.8,-14.8,65,30.54,10.0,Calm,Calm,-,N/A,,Clear,0,2014-01-24 09:35:00
2:55 AM,-4.0,-5.8,92,30.54,10.0,Calm,Calm,-,N/A,,Clear,0,2014-01-24 09:55:00
3:15 AM,-5.8,-20.2,50,30.55,10.0,Calm,Calm,-,N/A,,Clear,0,2014-01-24 10:15:00
3:35 AM,-5.8,-5.8,100,30.55,10.0,Calm,Calm,-,N/A,,Clear,0,2014-01-24 10:35:00
3:55 AM,-9.4,-27.4,41,30.55,10.0,Calm,Calm,-,N/A,,Clear,0,2014-01-24 10:55:00
4:15 AM,-7.6,-20.2,54,30.56,10.0,Calm,Calm,-,N/A,,Clear,0,2014-01-24 11:15:00
4:35 AM,-7.6,-18.4,59,30.56,10.0,Calm,Calm,-,N/A,,Clear,0,2014-01-24 11:35:00
4:55 AM,-7.6,-25.6,41,30.56,10.0,Calm,Calm,-,N/A,,Clear,0,2014-01-24 11:55:00
5:15 AM,-7.6,-18.4,59,30.57,10.0,Calm,Calm,-,N/A,,Clear,0,2014-01-24 12:15:00
5:35 AM,-9.4,-25.6,45,30.57,10.0,Calm,Calm,-,N/A,,Clear,0,2014-01-24 12:35:00
5:55 AM,-9.4,-18.4,65,30.57,10.0,Calm,Calm,-,N/A,,Clear,0,2014-01-24 12:55:00
6:15 AM,-9.4,-9999,N/A,30.58,10.0,Calm,Calm,-,N/A,,Clear,0,2014-01-24 13:15:00
6:35 AM,-9.4,-9999,N/A,30.58,10.0,Calm,Calm,-,N/A,,Clear,0,2014-01-24 13:35:00
6:55 AM,-11.2,-9999,N/A,30.58,10.0,Calm,Calm,-,N/A,,Clear,0,2014-01-24 13:55:00
7:15 AM,-11.2,-9999,N/A,30.58,10.0,Calm,Calm,-,N/A,,Clear,0,2014-01-24 14:15:00
7:35 AM,-13.0,-31.0,40,30.59,10.0,Calm,Calm,-,N/A,,Clear,0,2014-01-24 14:35:00
7:55 AM,-11.2,-31.0,37,30.59,10.0,Calm,Calm,-,N/A,,Clear,0,2014-01-24 14:55:00
8:15 AM,-9.4,-27.4,41,30.60,10.0,Calm,Calm,-,N/A,,Clear,0,2014-01-24 15:15:00
8:35 AM,-7.6,-22.0,50,30.61,10.0,Calm,Calm,-,N/A,,Clear,0,2014-01-24 15:35:00
8:55 AM,-7.6,-23.8,45,30.61,10.0,Calm,Calm,-,N/A,,Clear,0,2014-01-24 15:55:00
9:15 AM,-5.8,-54.4,8,30.61,10.0,ENE,4.6,-,N/A,,Clear,70,2014-01-24 16:15:00
9:35 AM,-5.8,-9999,N/A,30.61,10.0,Calm,Calm,-,N/A,,Clear,0,2014-01-24 16:35:00
9:55 AM,-2.2,-18.4,46,30.61,10.0,Calm,Calm,-,N/A,,Clear,0,2014-01-24 16:55:00
10:15 AM,-0.4,-25.6,30,30.61,10.0,Calm,Calm,-,N/A,,Clear,0,2014-01-24 17:15:00
10:35 AM,-0.4,-22.0,36,30.62,10.0,Calm,Calm,-,N/A,,Clear,0,2014-01-24 17:35:00
10:55 AM,3.2,-11.2,51,30.61,10.0,Calm,Calm,-,N/A,,Clear,0,2014-01-24 17:55:00
11:15 AM,5.0,-9.4,52,30.59,10.0,Calm,Calm,-,N/A,,Clear,0,2014-01-24 18:15:00
11:35 AM,6.8,-9999,N/A,30.58,10.0,Calm,Calm,-,N/A,,Clear,0,2014-01-24 18:35:00
11:55 AM,8.6,3.2,79,30.57,10.0,Calm,Calm,-,N/A,,Clear,0,2014-01-24 18:55:00
12:15 PM,10.4,-2.2,57,30.55,10.0,Calm,Calm,-,N/A,,Clear,0,2014-01-24 19:15:00
12:35 PM,12.2,1.4,62,30.54,10.0,Calm,Calm,-,N/A,,Clear,0,2014-01-24 19:35:00
12:55 PM,12.2,1.4,62,30.53,10.0,Calm,Calm,-,N/A,,Clear,0,2014-01-24 19:55:00
1:15 PM,14.0,3.2,62,30.51,10.0,Calm,Calm,-,N/A,,Clear,0,2014-01-24 20:15:00
1:35 PM,15.8,3.2,58,30.49,10.0,Calm,Calm,-,N/A,,Clear,0,2014-01-24 20:35:00
1:55 PM,15.8,3.2,58,30.49,10.0,Calm,Calm,-,N/A,,Clear,0,2014-01-24 20:55:00
2:15 PM,19.4,8.6,63,30.47,10.0,Calm,Calm,-,N/A,,Clear,0,2014-01-24 21:15:00
2:35 PM,19.4,5.0,54,30.47,10.0,Calm,Calm,-,N/A,,Clear,0,2014-01-24 21:35:00
2:55 PM,19.4,5.0,54,30.47,10.0,Calm,Calm,-,N/A,,Clear,0,2014-01-24 21:55:00
3:15 PM,19.4,3.2,49,30.46,10.0,North,5.8,-,N/A,,Clear,10,2014-01-24 22:15:00
3:35 PM,19.4,3.2,49,30.46,10.0,North,4.6,-,N/A,,Clear,360,2014-01-24 22:35:00
3:55 PM,19.4,3.2,49,30.45,10.0,North,5.8,-,N/A,,Clear,360,2014-01-24 22:55:00
4:35 PM,19.4,5.0,54,30.45,10.0,North,6.9,-,N/A,,Clear,10,2014-01-24 23:35:00
4:55 PM,19.4,5.0,54,30.45,10.0,North,4.6,-,N/A,,Clear,360,2014-01-24 23:55:00
5:15 PM,19.4,3.2,49,30.46,10.0,North,5.8,-,N/A,,Clear,10,2014-01-25 00:15:00
5:35 PM,19.4,3.2,49,30.46,10.0,North,4.6,-,N/A,,Clear,360,2014-01-25 00:35:00
5:55 PM,15.8,-0.4,49,30.47,10.0,Calm,Calm,-,N/A,,Clear,0,2014-01-25 00:55:00
6:15 PM,15.8,3.2,58,30.47,10.0,Calm,Calm,-,N/A,,Clear,0,2014-01-25 01:15:00
6:35 PM,14.0,-0.4,53,30.48,10.0,NNW,3.5,-,N/A,,Clear,330,2014-01-25 01:35:00
6:55 PM,12.2,1.4,62,30.49,10.0,NNW,3.5,-,N/A,,Clear,340,2014-01-25 01:55:00
7:15 PM,10.4,-0.4,62,30.49,10.0,Calm,Calm,-,N/A,,Clear,0,2014-01-25 02:15:00
7:35 PM,10.4,-0.4,62,30.50,10.0,North,3.5,-,N/A,,Clear,360,2014-01-25 02:35:00
7:55 PM,8.6,-0.4,67,30.50,10.0,North,3.5,-,N/A,,Clear,350,2014-01-25 02:55:00
8:15 PM,6.8,-5.8,56,30.50,10.0,Calm,Calm,-,N/A,,Clear,0,2014-01-25 03:15:00
8:35 PM,5.0,-2.2,72,30.51,10.0,NE,3.5,-,N/A,,Clear,40,2014-01-25 03:35:00
8:55 PM,5.0,-0.4,78,30.52,10.0,Calm,Calm,-,N/A,,Clear,0,2014-01-25 03:55:00
9:15 PM,3.2,-4.0,72,30.52,10.0,Calm,Calm,-,N/A,,Clear,0,2014-01-25 04:15:00
9:35 PM,6.8,1.4,79,30.53,10.0,Calm,Calm,-,N/A,,Clear,0,2014-01-25 04:35:00
9:55 PM,3.2,-5.8,66,30.53,10.0,Calm,Calm,-,N/A,,Clear,0,2014-01-25 04:55:00
10:15 PM,-0.4,-13.0,55,30.53,10.0,Calm,Calm,-,N/A,,Clear,0,2014-01-25 05:15:00
10:35 PM,1.4,1.4,100,30.53,10.0,Calm,Calm,-,N/A,,Clear,0,2014-01-25 05:35:00
10:55 PM,1.4,-7.6,66,30.53,8.0,Calm,Calm,-,N/A,,Clear,0,2014-01-25 05:55:00
11:15 PM,3.2,1.4,92,30.53,8.0,Calm,Calm,-,N/A,,Clear,0,2014-01-25 06:15:00
11:35 PM,-2.2,-18.4,46,30.53,10.0,Calm,Calm,-,N/A,,Clear,0,2014-01-25 06:35:00
11:55 PM,1.4,1.4,100,30.52,10.0,Calm,Calm,-,N/A,,Clear,0,2014-01-25 06:55:00